Location: Maccacari
(45.1333°N, 11.1333°E)
Time: 10:45:21
(UTC+00:00)

Vanguard 2 - Pass Details

Date: 21 January 2021
Orbit: 552 x 2938 km, 32.9° (Epoch: 24 February)

Event Time Altitude Azimuth Distance (km) Brightness Sun altitude
Rises 17:56:42 0° 239° (WSW) 2,872 11.7 -19.0°
Reaches altitude 10° 17:59:05 10° 224° (SW) 2,116 10.5 -19.4°
Maximum altitude 18:02:56 24° 170° (S) 1,669 9.2 -20.1°
Enters shadow 18:05:40 18° 136° (SE) 2,181 9.5 -20.5°
Drops below altitude 10° 18:08:08 10° 120° (ESE) 2,946 - -21.0°
Sets 18:12:10 0° 108° (ESE) 4,342 - -21.7°
